LFBPLFBZ

Guest
Details From LFBP - Pau Pyrenees
To LFBZ - Biarritz-Anglet-Bayonne
Flight Number -
Tags generated
Created
Modified
Stats Distance 48 nm / 90 km
Max Altitude 100 ft / 30 m
Waypoints 3
Social Downloads 11
Likes 0
Share VATSIM

Download

Looking for another format? Having issues loading an existing format? Contact us
Advertisement - Login to hide

Notes

Basic altitude profile: - Ascent Rate: 2500ft/min - Ascent Speed: 250kts - Cruise Altitude: 35000ft - Cruise Speed: 420kts - Descent Rate: 1500ft/min - Descent Speed: 250kts Options: - Use NATs: yes - Use PACOTS: yes - Use low airways: yes - Use high airways: no

Route

LFBP BTZ LFBZ

ID Type Via Altitude (ft/m) Position (lat/lon) Dist (leg/tot) Name
O LFBP APT - 0 / 0 43.38108 / -0.42075 - / 0 nm Pau Pyrenees
BTZ VOR - 100 / 30 43.46664 / -1.51028 47 / 47 nm BIARRITZ BAYONNE ANGLET VOR-DM
O LFBZ APT - 0 / 0 43.46843 / -1.52332 0 / 48 nm Biarritz-Anglet-Bayonne

Altitude Profile

Advertisement - Login to hide

LFBP

Details ICAO LFBP (PUF)
Name Pau Pyrenees
Region France
Timezone Europe/Paris (UTC+1.0)
Stats Elevation 616 ft / 188 m (AMSL)
Location 43.381100° -0.420750°
Runways 1
Magnetic Variation 0.216° E

METAR

LFBP 130530Z AUTO VRB03KT 9999 -RA OVC054/// ///CB 08/06 Q1006 BECMG OVC040

Decode

TAF

TAF LFBP 122300Z 1300/1324 11005KT 9999 SCT050 BKN120 BECMG 1309/1311 26010KT -RA OVC040 PROB40 TEMPO 1314/1320 3000 RA OVC015

Decode

Departure Runways

ID Width Length Bearing (true/mag) Surface Threshold Overrun Markings Lighting
13 148 ft / 45 m 8,191 ft / 2,497 m 125.89° / 125.67° ASPHALT 0 ft / 0 m 0 ft / 0 m APP CENTERLINE EDGE THRESHOLD REIL-OMNI
31 148 ft / 45 m 8,191 ft / 2,497 m 305.90° / 305.69° ASPHALT 0 ft / 0 m 0 ft / 0 m PREC-APP CENTERLINE EDGE THRESHOLD RAIL TDZ REIL-OMNI

LFBZ

Details ICAO LFBZ (BIQ)
Name Biarritz-Anglet-Bayonne
Region France
Timezone Europe/Paris (UTC+1.0)
Stats Elevation 245 ft / 75 m (AMSL)
Location 43.468400° -1.523330°
Runways 1
Magnetic Variation 0.102° W

METAR

LFBZ 130530Z AUTO 17004KT 140V200 9999 -RA BKN066/// BKN078/// OVC088/// ///CB 10/09 Q1006 BECMG 26015KT OVC060

Decode

TAF

TAF AMD LFBZ 130349Z 1303/1324 15004KT CAVOK TEMPO 1303/1306 4500 RA SCT050TCU BECMG 1306/1308 26015KT -RA OVC060 TEMPO 1312/1322 28015G30KT 3000 SHRA FEW025CB BKN030TCU

Decode

Destination Runways

ID Width Length Bearing (true/mag) Surface Threshold Overrun Markings Lighting
09 148 ft / 45 m 7,389 ft / 2,252 m 89.16° / 89.27° ASPHALT 686 ft / 209 m 0 ft / 0 m APP CENTERLINE EDGE THRESHOLD
27 148 ft / 45 m 7,389 ft / 2,252 m 269.18° / 269.29° ASPHALT 0 ft / 0 m 0 ft / 0 m PREC-APP CENTERLINE EDGE THRESHOLD

Approach Navaids

Runway Type Ident Frequency Range Bearing (true/mag) Slope Elevation
27 GS BZ 111.35 MHz 10 nm / 19 km 269.27° / 269.37 ° 3.00° 234 ft / 71 m (AMSL)
27 DME BZ 111.35 MHz 18 nm / 33 km - - 223 ft / 68 m (AMSL)
27 LOC-ILS BZ 111.35 MHz 18 nm / 33 km 269.04° / 269.15 ° - 234 ft / 71 m (AMSL)

Popular Alternatives